Location: Navarre
(52.9016°N, 113.4144°W)
Time: 03:41:13
(UTC+00:00)

Envisat - Pass Details

Date: 03 December 2023
Orbit: 762 x 764 km, 98.3° (Epoch: 22 February)

Event Time Altitude Azimuth Distance (km) Brightness Sun altitude
Rises 12:50:22 0° 7° (N) 3,245 6.3 -22.4°
Reaches altitude 10° 12:53:04 10° 354° (N) 2,315 5.3 -22.0°
Enters shadow 12:53:50 13° 348° (NNW) 2,093 5.1 -21.8°
